Weather History for Philadelphia Wings Airport, PA

Change the Weather History Date:

Tuesday, January 1, 2013

  Actual Average (KPNE) Record (KPNE)
Temperature  
Mean Temperature 36 °F -  
Max Temperature 41 °F 40 °F 64 °F (2005)
Min Temperature 32 °F 27 °F 14 °F (1997)
Degree Days  
Heating Degree Days 28    
Moisture  
Dew Point 29 °F    
Average Humidity 69    
Maximum Humidity 81    
Minimum Humidity 60    
Precipitation  
Precipitation 0.00 in - - ()
Sea Level Pressure  
Sea Level Pressure 29.93 in    
Wind  
Wind Speed 6 mph (West)    
Max Wind Speed 12 mph    
Max Gust Speed 17 mph    
Visibility 10 miles    
Events      
Averages and records for this station are not official NWS values.
T = Trace of Precipitation, MM = Missing Value Source: NWS Daily Summary

Daily Weather History Graph

Daily Weather History Graph

Search for Another Location

Airport:

Trip Planner

Search our weather history database for the weather conditions in past years. The results will help you decide how hot, cold, wet, or windy it might be!

Date:

Astronomy

Jan. 01, 2013 Rise Set
Actual Time 7:23 AM EST 4:46 PM EST
Civil Twilight 6:52 AM EST 5:16 PM EST
Nautical Twilight 6:18 AM EST 5:50 PM EST
Astronomical Twilight 5:45 AM EST 6:23 PM EST
Moon 9:15 PM EST (1/1) 9:34 AM EST (1/1)
Length of Visible Light 10h 23m
Length of Day
9h 22m
Waning Gibbous, 83% of the Moon is Illuminated
Jan 1
Waning Gibbous
Jan 4
Last Quarter
Jan 11
New
Jan 18
First Quarter
Jan 26
Full

Hourly Weather History & Observations

Time (EST) Temp. Windchill Dew Point Humidity Pressure Visibility Wind Dir Wind Speed Gust Speed Precip Events Conditions
12:15 AM 41.0 °F 35.8 °F 30.2 °F 65% 29.91 in 10.0 mi WSW 8.1 mph - N/A   Overcast
12:35 AM 41.0 °F 36.4 °F 30.2 °F 65% 29.91 in 10.0 mi WSW 6.9 mph - N/A   Overcast
12:55 AM 41.0 °F 36.4 °F 30.2 °F 65% 29.91 in 10.0 mi WSW 6.9 mph - N/A   Overcast
1:15 AM 41.0 °F 36.4 °F 30.2 °F 65% 29.91 in 10.0 mi WSW 6.9 mph - N/A   Overcast
1:35 AM 41.0 °F 37.1 °F 30.2 °F 65% 29.91 in 10.0 mi WSW 5.8 mph - N/A   Overcast
1:55 AM 41.0 °F 38.0 °F 30.2 °F 65% 29.91 in 10.0 mi WSW 4.6 mph - N/A   Overcast
2:15 AM 41.0 °F 38.0 °F 30.2 °F 65% 29.92 in 10.0 mi West 4.6 mph - N/A   Overcast
2:35 AM 41.0 °F 37.1 °F 30.2 °F 65% 29.93 in 10.0 mi WSW 5.8 mph - N/A   Overcast
2:55 AM 41.0 °F 38.0 °F 30.2 °F 65% 29.92 in 10.0 mi West 4.6 mph - N/A   Overcast
3:15 AM 41.0 °F 37.1 °F 32.0 °F 70% 29.93 in 10.0 mi WSW 5.8 mph - N/A   Overcast
3:35 AM 41.0 °F 37.1 °F 32.0 °F 70% 29.93 in 10.0 mi WSW 5.8 mph - N/A   Overcast
3:55 AM 41.0 °F 37.1 °F 32.0 °F 70% 29.92 in 10.0 mi West 5.8 mph - N/A   Overcast
4:15 AM 41.0 °F 36.4 °F 32.0 °F 70% 29.92 in 10.0 mi West 6.9 mph - N/A   Overcast
4:35 AM 41.0 °F 36.4 °F 32.0 °F 70% 29.91 in 10.0 mi West 6.9 mph - N/A   Overcast
4:55 AM 41.0 °F 38.0 °F 32.0 °F 70% 29.91 in 10.0 mi West 4.6 mph - N/A   Overcast
5:15 AM 41.0 °F 38.0 °F 32.0 °F 70% 29.91 in 10.0 mi West 4.6 mph - N/A   Overcast
5:35 AM 39.2 °F 35.9 °F 32.0 °F 75% 29.91 in 10.0 mi WSW 4.6 mph - N/A   Overcast
6:15 AM 39.2 °F 37.0 °F 32.0 °F 75% 29.92 in 10.0 mi West 3.5 mph - N/A   Mostly Cloudy
6:35 AM 39.2 °F 35.0 °F 32.0 °F 75% 29.93 in 10.0 mi West 5.8 mph - N/A   Scattered Clouds
6:55 AM 39.2 °F 35.9 °F 32.0 °F 75% 29.93 in 10.0 mi WNW 4.6 mph - N/A   Mostly Cloudy
7:15 AM 39.2 °F 35.9 °F 30.2 °F 70% 29.93 in 10.0 mi West 4.6 mph - N/A   Overcast
7:35 AM 39.2 °F 37.0 °F 30.2 °F 70% 29.93 in 10.0 mi WSW 3.5 mph - N/A   Overcast
7:55 AM 37.4 °F - 30.2 °F 75% 29.93 in 10.0 mi Calm Calm - N/A   Overcast
8:15 AM 37.4 °F 33.8 °F 32.0 °F 81% 29.94 in 10.0 mi West 4.6 mph - N/A   Scattered Clouds
8:35 AM 39.2 °F 34.2 °F 30.2 °F 70% 29.93 in 10.0 mi West 6.9 mph - N/A   Mostly Cloudy
8:55 AM 39.2 °F 35.0 °F 30.2 °F 70% 29.93 in 10.0 mi West 5.8 mph - N/A   Overcast
9:15 AM 39.2 °F 35.9 °F 30.2 °F 70% 29.94 in 10.0 mi WSW 4.6 mph - N/A   Mostly Cloudy
9:35 AM 39.2 °F 33.6 °F 30.2 °F 70% 29.94 in 10.0 mi WNW 8.1 mph - N/A   Overcast
9:55 AM 39.2 °F 34.2 °F 30.2 °F 70% 29.94 in 10.0 mi West 6.9 mph - N/A   Overcast
10:15 AM 39.2 °F 35.9 °F 30.2 °F 70% 29.94 in 10.0 mi WSW 4.6 mph - N/A   Overcast
10:35 AM 41.0 °F 38.0 °F 30.2 °F 65% 29.95 in 10.0 mi West 4.6 mph - N/A   Mostly Cloudy
10:55 AM 41.0 °F 38.0 °F 30.2 °F 65% 29.94 in 10.0 mi West 4.6 mph - N/A   Mostly Cloudy
11:15 AM 41.0 °F 37.1 °F 32.0 °F 70% 29.93 in 10.0 mi West 5.8 mph - N/A   Mostly Cloudy
11:35 AM 41.0 °F 37.1 °F 32.0 °F 70% 29.92 in 10.0 mi West 5.8 mph - N/A   Mostly Cloudy
11:55 AM 41.0 °F 36.4 °F 30.2 °F 65% 29.90 in 10.0 mi West 6.9 mph - N/A   Mostly Cloudy
12:15 PM 41.0 °F 36.4 °F 30.2 °F 65% 29.90 in 10.0 mi West 6.9 mph - N/A   Overcast
12:35 PM 41.0 °F 36.4 °F 32.0 °F 70% 29.89 in 10.0 mi West 6.9 mph - N/A   Mostly Cloudy
12:55 PM 41.0 °F 37.1 °F 30.2 °F 65% 29.89 in 10.0 mi West 5.8 mph - N/A   Scattered Clouds
1:15 PM 41.0 °F 35.8 °F 30.2 °F 65% 29.87 in 10.0 mi West 8.1 mph - N/A   Clear
1:35 PM 41.0 °F 35.8 °F 30.2 °F 65% 29.87 in 10.0 mi West 8.1 mph - N/A   Clear
1:55 PM 39.2 °F 33.0 °F 30.2 °F 70% 29.87 in 10.0 mi West 9.2 mph - N/A   Clear
2:15 PM 39.2 °F 32.0 °F 30.2 °F 70% 29.87 in 10.0 mi West 11.5 mph 17.3 mph N/A   Clear
2:35 PM 39.2 °F 35.0 °F 30.2 °F 70% 29.87 in 10.0 mi West 5.8 mph - N/A   Clear
2:55 PM 39.2 °F 35.0 °F 30.2 °F 70% 29.87 in 10.0 mi WNW 5.8 mph - N/A   Scattered Clouds
3:15 PM 39.2 °F 33.6 °F 30.2 °F 70% 29.88 in 10.0 mi West 8.1 mph - N/A   Mostly Cloudy
3:35 PM 39.2 °F 35.0 °F 30.2 °F 70% 29.89 in 10.0 mi West 5.8 mph - N/A   Overcast
4:15 PM 39.2 °F 34.2 °F 30.2 °F 70% 29.90 in 10.0 mi West 6.9 mph - N/A   Overcast
4:35 PM 39.2 °F 33.0 °F 28.4 °F 65% 29.90 in 10.0 mi West 9.2 mph - N/A   Overcast
5:15 PM 37.4 °F 32.8 °F 30.2 °F 75% 29.91 in 10.0 mi WNW 5.8 mph - N/A   Overcast
5:35 PM 37.4 °F 33.8 °F 30.2 °F 75% 29.92 in 10.0 mi NNW 4.6 mph - N/A   Overcast
5:55 PM 37.4 °F - 30.2 °F 75% 29.93 in 10.0 mi Calm Calm - N/A   Scattered Clouds
6:15 PM 35.6 °F 31.7 °F 30.2 °F 81% 29.94 in 10.0 mi NW 4.6 mph - N/A   Clear
6:35 PM 35.6 °F 30.7 °F 28.4 °F 75% 29.94 in 10.0 mi NW 5.8 mph - N/A   Clear
6:55 PM 35.6 °F 29.9 °F 28.4 °F 75% 29.95 in 10.0 mi NW 6.9 mph - N/A   Clear
7:15 PM 35.6 °F 32.8 °F 28.4 °F 75% 29.95 in 10.0 mi NW 3.5 mph - N/A   Clear
7:35 PM 35.6 °F - 26.6 °F 70% 29.96 in 10.0 mi Calm Calm - N/A   Clear
7:55 PM 35.6 °F - 26.6 °F 70% 29.97 in 10.0 mi Calm Calm - N/A   Clear
8:15 PM 33.8 °F - 26.6 °F 75% 29.97 in 10.0 mi Calm Calm - N/A   Clear
8:35 PM 33.8 °F 30.8 °F 24.8 °F 70% 29.96 in 10.0 mi North 3.5 mph - N/A   Clear
8:55 PM 33.8 °F - 24.8 °F 70% 29.97 in 10.0 mi Calm Calm - N/A   Clear
9:15 PM 33.8 °F 30.8 °F 23.0 °F 65% 29.97 in 10.0 mi North 3.5 mph - N/A   Clear
9:35 PM 33.8 °F - 23.0 °F 65% 29.98 in 10.0 mi Calm Calm - N/A   Mostly Cloudy
9:55 PM 33.8 °F - 23.0 °F 65% 29.98 in 10.0 mi Calm Calm - N/A   Scattered Clouds
10:15 PM 32.0 °F - 21.2 °F 64% 30.00 in 10.0 mi Calm Calm - N/A   Clear
10:35 PM 32.0 °F 28.7 °F 21.2 °F 64% 29.99 in 10.0 mi North 3.5 mph - N/A   Clear
10:55 PM 32.0 °F 28.7 °F 19.4 °F 60% 30.01 in 10.0 mi NNW 3.5 mph - N/A   Clear
11:15 PM 32.0 °F - 19.4 °F 60% 30.02 in 10.0 mi Calm Calm - N/A   Clear
11:35 PM 32.0 °F 26.4 °F 19.4 °F 60% 30.02 in 10.0 mi North 5.8 mph - N/A   Clear
11:55 PM 32.0 °F 28.7 °F 19.4 °F 60% 30.02 in 10.0 mi NNE 3.5 mph - N/A   Clear